AEE612 LWSK-LGAV

Flight info

Callsign AEE612
Flight time 0h 49m
Altitude 36000
Route PEP2E PEP T217 TALAS/N0416F230 N130 TSL L617 SKP M749 ROPOX ROPOX1K
Aircraft A320/L-V/N

Departure

Time 2026-04-23 17:56
Airport Skopje International Airport (LWSK)

Arrival

Time 2026-04-23 18:45
Airport Athens Eleftherios Venizelos International Airport (LGAV)
Time Latitude Longitude Altitude Speed Heading
2026-04-23 17:36 41.95617 21.62717 781 ft 0 kts 76°
2026-04-23 17:47 41.95616 21.62714 780 ft 2 kts 76°
2026-04-23 17:47 41.95609 21.62672 780 ft 2 kts 76°
2026-04-23 17:48 41.95605 21.62651 780 ft 2 kts 81°
2026-04-23 17:48 41.95604 21.62630 780 ft 1 kts 117°
2026-04-23 17:48 41.95613 21.62613 780 ft 3 kts 143°
2026-04-23 17:48 41.95623 21.62604 780 ft 3 kts 165°
2026-04-23 17:49 41.95626 21.62603 781 ft 0 kts 166°
2026-04-23 17:52 41.95613 21.62607 780 ft 3 kts 166°
2026-04-23 17:52 41.95580 21.62618 780 ft 6 kts 166°
2026-04-23 17:53 41.95460 21.62659 780 ft 11 kts 166°
2026-04-23 17:53 41.95374 21.62689 779 ft 14 kts 165°
2026-04-23 17:53 41.95269 21.62725 778 ft 17 kts 166°
2026-04-23 17:54 41.95166 21.62738 778 ft 15 kts 206°
2026-04-23 17:54 41.95134 21.62650 778 ft 8 kts 255°
2026-04-23 17:54 41.95120 21.62581 779 ft 1 kts 255°
2026-04-23 17:55 41.95191 21.62481 779 ft 2 kts 345°
2026-04-23 17:55 41.95307 21.62441 780 ft 50 kts 346°
2026-04-23 17:56 41.95868 21.62244 782 ft 113 kts 346°
2026-04-23 17:56 41.97858 21.61561 1383 ft 158 kts 345°
2026-04-23 17:56 41.98908 21.61195 2069 ft 157 kts 345°
2026-04-23 17:57 41.99976 21.60829 2698 ft 163 kts 346°
2026-04-23 17:57 42.01171 21.60753 3044 ft 183 kts 12°
2026-04-23 17:57 42.03094 21.63443 3687 ft 241 kts 78°
2026-04-23 17:58 42.02833 21.65727 4409 ft 260 kts 116°
2026-04-23 17:58 42.01549 21.67459 5279 ft 271 kts 153°
2026-04-23 17:58 41.99707 21.67967 6190 ft 276 kts 183°
2026-04-23 17:58 41.97806 21.67552 7100 ft 278 kts 196°
2026-04-23 17:59 41.95950 21.66787 8016 ft 280 kts 200°
2026-04-23 17:59 41.94098 21.65940 8922 ft 284 kts 200°
2026-04-23 17:59 41.92206 21.65121 9819 ft 287 kts 196°
2026-04-23 17:59 41.90203 21.64932 10454 ft 298 kts 171°
2026-04-23 18:00 41.88115 21.65637 10729 ft 321 kts 164°
2026-04-23 18:00 41.85869 21.66407 10953 ft 345 kts 165°
2026-04-23 18:00 41.83484 21.67165 11399 ft 358 kts 166°
2026-04-23 18:00 41.81037 21.67918 12075 ft 363 kts 165°
2026-04-23 18:01 41.78562 21.68693 12777 ft 367 kts 165°
2026-04-23 18:01 41.76072 21.69501 13497 ft 371 kts 164°
2026-04-23 18:01 41.73556 21.70331 14170 ft 375 kts 163°
2026-04-23 18:01 41.71014 21.71171 14818 ft 378 kts 163°
2026-04-23 18:02 41.68454 21.72018 15440 ft 381 kts 163°
2026-04-23 18:02 41.65870 21.72869 16061 ft 384 kts 163°
2026-04-23 18:02 41.63265 21.73724 16678 ft 387 kts 162°
2026-04-23 18:02 41.60640 21.74582 17305 ft 390 kts 162°
2026-04-23 18:03 41.57988 21.75446 17933 ft 393 kts 162°
2026-04-23 18:03 41.55323 21.76311 18538 ft 397 kts 162°
2026-04-23 18:03 41.52627 21.77183 19107 ft 399 kts 161°
2026-04-23 18:03 41.49922 21.78056 19686 ft 402 kts 161°
2026-04-23 18:04 41.47195 21.78937 20260 ft 404 kts 161°
2026-04-23 18:04 41.44454 21.79823 20825 ft 407 kts 160°
2026-04-23 18:04 41.41694 21.80717 21361 ft 409 kts 160°
2026-04-23 18:04 41.38919 21.81617 21842 ft 411 kts 159°
2026-04-23 18:05 41.36129 21.82521 22217 ft 414 kts 159°
2026-04-23 18:05 41.33325 21.83425 22687 ft 416 kts 159°
2026-04-23 18:05 41.30540 21.84321 23253 ft 418 kts 159°
2026-04-23 18:05 41.27706 21.85232 23694 ft 420 kts 159°
2026-04-23 18:06 41.24854 21.86151 24071 ft 423 kts 159°
2026-04-23 18:06 41.21987 21.87078 24502 ft 426 kts 159°
2026-04-23 18:06 41.19098 21.88009 24900 ft 429 kts 159°
2026-04-23 18:06 41.16201 21.88944 25303 ft 431 kts 159°
2026-04-23 18:07 41.13284 21.89904 25717 ft 431 kts 156°
2026-04-23 18:07 41.10500 21.91285 26080 ft 425 kts 147°
2026-04-23 18:07 41.07950 21.93225 26494 ft 419 kts 138°
2026-04-23 18:07 41.05709 21.95641 26893 ft 414 kts 129°
2026-04-23 18:08 41.04380 21.97517 27175 ft 411 kts 123°
2026-04-23 18:08 41.02098 22.01502 27704 ft 412 kts 121°
2026-04-23 18:08 41.00376 22.04542 28088 ft 415 kts 121°
2026-04-23 18:08 40.98634 22.07598 28456 ft 417 kts 121°
2026-04-23 18:09 40.96873 22.10678 28819 ft 420 kts 121°
2026-04-23 18:09 40.95105 22.13763 29183 ft 422 kts 121°
2026-04-23 18:09 40.93284 22.16830 29552 ft 428 kts 127°
2026-04-23 18:09 40.90949 22.19371 29938 ft 444 kts 143°
2026-04-23 18:10 40.88155 22.21190 30385 ft 449 kts 149°
2026-04-23 18:10 40.85315 22.22905 30819 ft 449 kts 149°
2026-04-23 18:10 40.82472 22.24601 31212 ft 449 kts 149°
2026-04-23 18:10 40.79623 22.26308 31626 ft 450 kts 149°
2026-04-23 18:11 40.76782 22.28019 32009 ft 450 kts 150°
2026-04-23 18:11 40.73923 22.29730 32407 ft 451 kts 150°
2026-04-23 18:11 40.71054 22.31436 32797 ft 452 kts 150°
2026-04-23 18:11 40.68175 22.33139 32987 ft 454 kts 151°
2026-04-23 18:12 40.65288 22.34838 33021 ft 454 kts 151°
2026-04-23 18:12 40.59516 22.38239 33019 ft 454 kts 151°
2026-04-23 18:13 40.53751 22.41647 33023 ft 454 kts 150°
2026-04-23 18:13 40.47991 22.45060 33021 ft 454 kts 150°
2026-04-23 18:14 40.42222 22.48460 33021 ft 455 kts 151°
2026-04-23 18:14 40.36443 22.51857 33020 ft 455 kts 151°
2026-04-23 18:15 40.30666 22.55252 33022 ft 456 kts 152°
2026-04-23 18:15 40.24874 22.58650 33029 ft 456 kts 152°
2026-04-23 18:16 40.19089 22.62035 33030 ft 456 kts 152°
2026-04-23 18:16 40.13288 22.65412 33032 ft 456 kts 152°
2026-04-23 18:17 40.04559 22.70484 33024 ft 459 kts 153°
2026-04-23 18:17 39.98753 22.73858 33032 ft 460 kts 153°
2026-04-23 18:18 39.92879 22.77272 33032 ft 459 kts 153°
2026-04-23 18:18 39.87033 22.80656 33036 ft 461 kts 155°
2026-04-23 18:19 39.81162 22.84036 33033 ft 462 kts 155°
2026-04-23 18:19 39.75284 22.87411 33035 ft 462 kts 155°
2026-04-23 18:20 39.69453 22.90784 33037 ft 462 kts 155°
2026-04-23 18:20 39.63539 22.94192 33037 ft 462 kts 156°
2026-04-23 18:21 39.57687 22.97545 33032 ft 463 kts 156°
2026-04-23 18:21 39.51762 23.00935 33044 ft 463 kts 156°
2026-04-23 18:22 39.45907 23.04276 33038 ft 463 kts 156°
2026-04-23 18:22 39.40006 23.07638 33045 ft 463 kts 158°
2026-04-23 18:23 39.31141 23.12682 33045 ft 464 kts 158°
2026-04-23 18:24 39.22275 23.17714 32852 ft 463 kts 158°
2026-04-23 18:24 39.19325 23.19382 32058 ft 464 kts 158°
2026-04-23 18:25 39.13399 23.22723 30824 ft 467 kts 160°
2026-04-23 18:25 39.10392 23.24414 30269 ft 470 kts 160°
2026-04-23 18:25 39.07397 23.26102 29641 ft 470 kts 160°
2026-04-23 18:25 39.04408 23.27790 28991 ft 467 kts 160°
2026-04-23 18:26 39.01450 23.29461 28368 ft 463 kts 160°
2026-04-23 18:26 38.98553 23.31097 27741 ft 458 kts 160°
2026-04-23 18:26 38.95647 23.32733 27141 ft 454 kts 160°
2026-04-23 18:26 38.92769 23.34351 26534 ft 450 kts 161°
2026-04-23 18:27 38.89917 23.35952 25941 ft 446 kts 161°
2026-04-23 18:27 38.87091 23.37535 25387 ft 442 kts 161°
2026-04-23 18:27 38.84281 23.39105 24824 ft 438 kts 161°
2026-04-23 18:27 38.81501 23.40659 24280 ft 434 kts 161°
2026-04-23 18:28 38.78745 23.42199 23744 ft 431 kts 161°
2026-04-23 18:28 38.76000 23.43732 23099 ft 428 kts 162°
2026-04-23 18:28 38.73283 23.45249 22478 ft 425 kts 162°
2026-04-23 18:28 38.70586 23.46754 21853 ft 421 kts 161°
2026-04-23 18:29 38.67909 23.48251 21227 ft 418 kts 162°
2026-04-23 18:29 38.65262 23.49731 20635 ft 415 kts 161°
2026-04-23 18:29 38.62625 23.51200 20051 ft 412 kts 161°
2026-04-23 18:29 38.60004 23.52656 19484 ft 410 kts 161°
2026-04-23 18:30 38.57402 23.54100 19022 ft 404 kts 160°
2026-04-23 18:30 38.54844 23.55519 18619 ft 397 kts 160°
2026-04-23 18:30 38.52326 23.56914 18097 ft 393 kts 160°
2026-04-23 18:30 38.49827 23.58296 17508 ft 389 kts 160°
2026-04-23 18:31 38.47359 23.59660 16925 ft 386 kts 160°
2026-04-23 18:31 38.44902 23.61017 16332 ft 382 kts 160°
2026-04-23 18:31 38.42471 23.62360 15733 ft 380 kts 159°
2026-04-23 18:31 38.40056 23.63696 15163 ft 377 kts 159°
2026-04-23 18:32 38.37664 23.65020 14626 ft 373 kts 159°
2026-04-23 18:32 38.35291 23.66326 14093 ft 370 kts 159°
2026-04-23 18:32 38.32840 23.67184 13525 ft 362 kts 178°
2026-04-23 18:32 38.30346 23.67174 12908 ft 357 kts 185°
2026-04-23 18:33 38.27870 23.67021 12293 ft 355 kts 185°
2026-04-23 18:33 38.25414 23.66848 11725 ft 353 kts 185°
2026-04-23 18:33 38.23798 23.66729 11345 ft 351 kts 185°
2026-04-23 18:33 38.20545 23.66474 10620 ft 348 kts 185°
2026-04-23 18:34 38.18947 23.66342 10349 ft 345 kts 185°
2026-04-23 18:34 38.16608 23.66144 10220 ft 331 kts 185°
2026-04-23 18:34 38.14362 23.65951 10088 ft 313 kts 185°
2026-04-23 18:34 38.12258 23.65775 9785 ft 296 kts 185°
2026-04-23 18:35 38.10209 23.65602 9415 ft 294 kts 185°
2026-04-23 18:35 38.08179 23.65428 9089 ft 291 kts 185°
2026-04-23 18:35 38.06163 23.65252 8735 ft 290 kts 185°
2026-04-23 18:35 38.04154 23.65071 8412 ft 289 kts 185°
2026-04-23 18:36 38.02153 23.64888 8084 ft 288 kts 185°
2026-04-23 18:36 38.00161 23.64695 7768 ft 286 kts 185°
2026-04-23 18:36 37.98190 23.64495 7457 ft 284 kts 185°
2026-04-23 18:36 37.96228 23.64286 7143 ft 282 kts 185°
2026-04-23 18:37 37.94275 23.64071 6819 ft 281 kts 185°
2026-04-23 18:37 37.92329 23.63847 6504 ft 280 kts 185°
2026-04-23 18:37 37.90396 23.63617 6182 ft 279 kts 185°
2026-04-23 18:37 37.88468 23.63386 5856 ft 277 kts 185°
2026-04-23 18:38 37.86552 23.63156 5513 ft 275 kts 185°
2026-04-23 18:38 37.84646 23.62927 5106 ft 274 kts 185°
2026-04-23 18:38 37.82751 23.62702 4696 ft 273 kts 185°
2026-04-23 18:38 37.80863 23.62494 4282 ft 272 kts 181°
2026-04-23 18:39 37.79039 23.62968 3914 ft 268 kts 152°
2026-04-23 18:39 37.77621 23.64440 3600 ft 264 kts 129°
2026-04-23 18:39 37.76486 23.66262 3267 ft 264 kts 126°
2026-04-23 18:39 37.75396 23.68116 3018 ft 260 kts 123°
2026-04-23 18:40 37.74706 23.70202 3011 ft 260 kts 100°
2026-04-23 18:40 37.74619 23.72467 3020 ft 258 kts 81°
2026-04-23 18:40 37.75093 23.74638 3013 ft 256 kts 63°
2026-04-23 18:40 37.76063 23.76492 3012 ft 251 kts 45°
2026-04-23 18:41 37.77392 23.77905 3015 ft 249 kts 35°
2026-04-23 18:41 37.78743 23.79179 3006 ft 234 kts 35°
2026-04-23 18:41 37.79976 23.80346 3007 ft 209 kts 35°
2026-04-23 18:41 37.81076 23.81388 2981 ft 191 kts 34°
2026-04-23 18:42 37.82120 23.82375 2803 ft 184 kts 34°
2026-04-23 18:42 37.83119 23.83321 2584 ft 172 kts 35°
2026-04-23 18:42 37.84039 23.84193 2363 ft 160 kts 34°
2026-04-23 18:42 37.84910 23.85018 2141 ft 154 kts 35°
2026-04-23 18:43 37.85755 23.85818 1933 ft 153 kts 35°
2026-04-23 18:43 37.86596 23.86615 1734 ft 152 kts 35°
2026-04-23 18:43 37.87442 23.87417 1526 ft 152 kts 36°
2026-04-23 18:43 37.88316 23.88246 1310 ft 150 kts 35°
2026-04-23 18:44 37.89102 23.88993 1100 ft 136 kts 36°
2026-04-23 18:44 37.89854 23.89706 916 ft 133 kts 36°
2026-04-23 18:44 37.90588 23.90403 739 ft 132 kts 36°
2026-04-23 18:44 37.91281 23.91080 586 ft 131 kts 36°
2026-04-23 18:45 37.92014 23.91756 394 ft 131 kts 37°
2026-04-23 18:45 37.92704 23.92425 309 ft 117 kts 36°
2026-04-23 18:45 37.93235 23.92925 292 ft 74 kts 38°
2026-04-23 18:45 37.93482 23.93163 292 ft 28 kts 39°
2026-04-23 18:46 37.93596 23.93357 293 ft 22 kts 66°
2026-04-23 18:46 37.93616 23.93415 298 ft 0 kts 66°
2026-04-23 18:47 37.93618 23.93420 297 ft 4 kts 66°
2026-04-23 18:47 37.93624 23.93477 298 ft 6 kts 99°
2026-04-23 18:47 37.93599 23.93512 300 ft 5 kts 149°
2026-04-23 18:47 37.93535 23.93492 300 ft 11 kts 216°
2026-04-23 18:48 37.93463 23.93429 299 ft 14 kts 192°
2026-04-23 18:48 37.93403 23.93483 300 ft 11 kts 127°
2026-04-23 18:48 37.93352 23.93569 301 ft 14 kts 127°
2026-04-23 18:48 37.93295 23.93666 301 ft 16 kts 127°
2026-04-23 18:49 37.93225 23.93786 301 ft 19 kts 127°
2026-04-23 18:49 37.93140 23.93926 302 ft 21 kts 127°
2026-04-23 18:49 37.93045 23.94086 301 ft 24 kts 127°
2026-04-23 18:49 37.92941 23.94258 302 ft 19 kts 127°
2026-04-23 18:50 37.92911 23.94308 302 ft 7 kts 127°
2026-04-23 18:50 37.92888 23.94346 303 ft 0 kts 128°
2026-04-23 18:50 37.92885 23.94351 303 ft 0 kts 127°
2026-04-23 18:51 37.92884 23.94352 302 ft 1 kts 127°
2026-04-23 18:51 37.92879 23.94367 301 ft 3 kts 109°
2026-04-23 18:51 37.92910 23.94439 304 ft 15 kts 36°
2026-04-23 18:51 37.93001 23.94518 304 ft 19 kts 36°
2026-04-23 18:52 37.93072 23.94582 301 ft 10 kts 24°
2026-04-23 18:52 37.93126 23.94641 301 ft 12 kts 42°
2026-04-23 18:52 37.93202 23.94712 303 ft 15 kts 36°
2026-04-23 18:52 37.93283 23.94788 303 ft 12 kts 37°
2026-04-23 18:53 37.93357 23.94860 303 ft 15 kts 38°
2026-04-23 18:53 37.93451 23.94948 302 ft 18 kts 36°
2026-04-23 18:53 37.93543 23.95036 302 ft 12 kts 36°
2026-04-23 18:53 37.93622 23.95012 300 ft 14 kts 331°
2026-04-23 18:54 37.93654 23.94989 301 ft 5 kts 322°
2026-04-23 18:54 37.93681 23.94944 303 ft 7 kts 308°
2026-04-23 18:54 37.93693 23.94925 301 ft 0 kts 308°